Temp
20 21 20 22 23 25 25 23 23 25 25 23 23 24 22 23 22 21 21 21 21 21 22 23 24 21 20 20 19 19 18 16 17 16 15 14 14 14 13 14 14 14 14 14
19 19 22 24 25 25 23 23 24 25 28 25 24 23 23 23 23 23 22 21 21 20 20 22 23 20 19 19 18 18 17 16 16 16 16 16 15 14 14 15 14 14 14 14
19 22 24 25 24 24 23 24 25 24 27 27 24 23 23 24 25 24 23 23 23 21 21 20 22 19 18 18 17 16 17 17 17 17 17 16 16 15 14 14 14 14 14 13
21 22 23 23 24 25 24 26 25 25 24 22 24 20 24 24 24 25 24 23 22 22 21 21 21 19 19 18 18 17 17 17 17 17 17 16 16 15 15 15 14 14 13 13
21 22 21 21 23 26 24 25 25 24 24 22 24 20 20 25 24 25 23 22 21 22 21 20 20 21 19 18 17 17 17 18 18 17 17 17 16 16 16 15 14 13 13 13
22 22 21 24 25 25 24 26 24 21 21 20 24 22 20 23 25 25 25 22 22 20 21 21 21 18 18 18 18 17 18 18 17 17 18 18 17 15 15 14 14 14 13 12
23 23 23 23 23 24 24 22 19 17 16 17 23 22 22 23 24 24 24 23 22 20 20 19 18 18 17 18 19 19 18 17 18 18 17 17 16 16 15 14 14 13 12 11
21 20 23 25 22 22 24 22 18 18 16 17 21 22 23 24 24 22 23 22 21 19 19 19 19 18 18 19 18 18 17 18 18 18 17 16 15 15 14 14 13 13 12 11
21 21 21 23 22 24 24 22 23 18 17 15 19 24 24 24 23 21 19 20 20 19 19 18 18 19 19 19 19 19 18 18 17 17 16 15 15 14 14 13 12 12 11 10
20 20 20 21 23 24 25 24 21 18 19 19 21 22 21 23 23 21 21 20 19 19 19 18 17 19 19 19 19 19 18 18 17 16 15 14 14 13 13 12 11 11 10 10
19 20 19 20 21 22 23 22 23 22 19 17 16 19 24 23 22 22 20 20 19 19 18 17 17 19 19 19 19 19 18 17 16 16 14 13 13 12 12 11 11 10 9 9
20 18 16 20 22 24 25 23 21 15 20 18 13 17 24 25 22 22 22 21 19 20 18 18 18 18 18 19 19 18 18 17 16 14 14 13 12 11 11 11 10 9 9 9
23 21 17 20 22 23 24 24 24 22 17 19 14 17 23 24 25 23 22 22 20 19 18 18 18 18 17 17 18 18 17 16 15 14 13 12 12 11 10 10 9 9 9 8
21 22 19 17 20 23 22 22 23 21 14 17 17 20 22 22 22 22 23 23 19 20 20 19 19 18 19 18 16 17 17 16 15 13 12 12 11 11 10 9 8 9 8 7
20 20 23 22 22 24 23 23 22 22 20 17 19 21 22 23 21 21 21 23 24 22 21 19 18 16 18 17 16 16 16 15 14 13 12 11 10 9 9 9 8 8 8 7
21 19 21 21 22 21 21 22 21 22 23 23 22 21 23 22 21 20 21 21 20 20 19 19 16 16 16 16 16 16 15 14 13 12 11 10 10 8 8 8 8 8 7 7
19 18 15 18 17 18 15 19 20 21 22 22 21 21 19 19 19 19 19 19 20 19 19 19 19 17 18 17 17 15 14 13 12 11 11 10 9 8 7 7 7 7 6 6
17 17 12 12 13 14 18 23 22 21 20 19 19 19 19 19 18 17 17 16 17 17 17 17 17 19 17 16 15 12 12 11 10 9 9 8 6 7 6 6 6 6 6 6
18 14 12 12 12 16 19 21 22 20 18 19 18 18 18 18 17 15 16 17 17 17 17 17 15 14 13 11 11 11 10 10 9 8 7 6 6 5 5 5 5 4 4 5
17 15 11 11 12 12 16 21 21 21 15 18 17 16 16 16 12 14 16 16 14 12 11 10 9 8 8 7 7 6 5 5 5 5 4 4 4 5 5 4 4 5 5 5
10 11 11 8 9 12 19 20 21 15 14 18 17 16 16 15 15 16 17 14 12 9 7 6 5 5 5 5 6 4 4 4 4 3 3 4 5 5 3 4 4 4 4 4
13 11 9 11 10 13 19 20 16 15 17 16 16 16 16 15 15 14 14 10 9 7 6 5 4 4 5 5 5 4 4 4 4 4 4 5 4 3 3 4 4 4 4 4
14 14 12 13 12 15 18 16 15 15 14 15 14 14 14 13 13 11 8 7 6 4 4 4 4 4 5 5 5 5 5 4 4 4 3 3 3 3 3 3 3 3 3 3
19 19 15 16 18 18 15 15 15 14 13 12 11 12 12 9 8 7 6 5 4 4 4 4 5 5 4 5 4 4 4 4 4 3 3 3 3 3 3 3 2 2 2 2
15 17 17 17 14 14 14 13 13 13 11 10 9 9 8 7 6 4 4 4 4 4 4 4 4 4 4 4 4 4 4 4 3 3 3 3 2 2 2 2 2 2 2 2
16 16 12 11 13 13 11 11 11 10 10 9 7 6 5 5 4 4 3 3 3 3 3 4 4 4 5 4 4 4 4 4 3 3 3 2 2 1 1 1 1 1 1 1
Height
781 789 796 784 775 771 775 787 786 771 762 775 777 777 779 773 776 780 782 784 786 787 789 792 796 801 807 812 817 821 826 832 835 839 844 850 849 849 852 853 853 854 857 859
793 801 782 772 769 773 781 789 783 766 752 767 774 776 772 772 771 774 779 782 784 787 789 791 795 802 804 810 815 819 826 831 835 838 841 844 846 849 850 849 851 853 857 859
798 788 774 773 778 779 781 786 779 779 761 758 774 783 780 771 767 768 769 771 776 783 787 790 793 799 805 809 812 818 822 827 831 835 839 842 845 846 847 848 850 854 857 857
785 778 781 782 779 773 785 765 769 773 780 797 770 813 783 777 773 768 770 771 774 778 783 786 791 798 803 808 812 815 819 823 828 831 835 837 840 842 844 845 849 853 855 856
786 780 786 789 776 766 779 764 769 772 779 785 783 808 797 772 780 772 771 769 769 770 776 783 788 792 798 804 810 813 819 821 824 827 830 833 836 839 841 844 848 851 852 854
777 770 778 770 763 761 762 764 769 781 791 811 781 794 801 781 767 765 761 767 765 769 771 778 785 790 796 801 807 811 814 818 822 825 827 829 833 836 838 842 846 848 850 852
776 771 766 768 776 766 771 782 816 827 832 827 786 794 786 762 757 757 760 763 763 766 771 779 785 790 794 798 801 806 812 816 819 822 825 827 830 833 835 839 842 845 847 848
790 803 778 763 779 785 773 784 816 831 839 825 787 793 774 744 750 753 752 759 764 767 770 775 779 785 789 795 800 804 809 813 816 819 823 826 829 831 834 836 838 840 841 843
786 791 776 767 769 767 770 785 770 805 819 835 806 773 759 751 754 758 765 766 768 769 771 774 778 782 787 793 800 803 806 811 814 817 821 824 828 830 833 836 839 839 844 843
778 794 782 769 767 758 763 764 795 800 818 820 795 785 788 768 763 766 767 768 767 769 772 775 779 783 788 793 799 803 807 810 813 817 820 824 827 831 834 836 839 844 842 848
770 780 794 785 783 777 773 778 774 780 798 819 833 806 760 764 761 763 765 761 764 767 771 775 778 781 785 791 796 802 807 810 813 816 820 824 828 831 835 838 839 842 844 845
760 781 805 786 764 752 754 768 776 816 798 804 827 811 756 753 756 756 757 757 759 760 765 769 773 778 782 786 792 797 803 807 811 815 819 823 827 831 834 837 840 841 841 840
749 769 803 789 772 758 762 757 760 769 793 798 831 811 757 751 749 751 753 752 756 759 761 764 768 772 776 782 786 791 797 802 808 812 816 821 825 829 833 835 839 839 838 839
745 758 778 800 780 764 770 766 759 771 814 800 802 785 766 760 756 752 749 748 753 754 755 757 761 764 768 774 780 787 791 797 803 808 814 819 824 829 831 837 838 840 838 838
752 771 760 763 761 757 759 763 762 766 773 793 783 778 762 757 756 754 751 750 750 754 756 756 757 763 768 773 779 786 791 795 800 806 813 818 823 826 829 832 837 836 835 836
749 772 762 770 762 765 769 761 762 761 758 759 763 769 750 750 750 754 754 754 757 758 758 757 759 762 767 771 777 783 788 792 797 803 809 814 818 822 831 834 833 834 833 833
758 768 788 787 782 779 798 770 764 760 755 758 772 766 757 761 760 761 759 757 757 758 759 760 761 764 766 770 773 781 787 791 797 803 807 812 816 822 825 830 832 831 832 831
760 767 792 805 802 815 771 746 747 757 761 761 763 764 762 762 763 761 760 763 764 763 763 763 763 764 768 770 775 782 789 795 801 807 811 814 819 823 826 827 828 831 829 827
749 775 796 807 810 783 763 753 752 760 774 763 766 765 764 761 762 771 766 763 764 764 765 766 767 769 773 778 782 786 793 799 802 807 811 817 820 823 824 826 827 825 824 822
756 765 792 805 809 815 774 750 745 747 787 764 765 768 768 767 789 782 769 767 770 771 774 775 778 779 781 787 787 791 799 803 807 812 817 818 821 823 823 821 821 818 817 815
791 790 800 819 819 792 755 748 745 783 791 763 765 767 769 775 777 771 769 773 777 782 784 785 786 790 795 796 795 800 803 806 812 815 818 819 817 817 816 816 816 815 813 811
777 792 809 801 808 796 747 749 768 770 762 764 765 768 770 772 772 773 777 783 785 788 792 794 794 799 802 802 802 806 809 812 812 813 813 813 814 815 815 814 812 810 808 806
769 762 775 773 778 755 746 754 757 758 764 767 768 769 770 774 776 782 789 791 794 796 797 799 800 803 805 805 805 806 809 810 812 813 814 814 813 812 811 809 808 806 805 802
737 735 754 756 748 748 757 756 756 759 765 770 773 773 774 783 786 791 795 798 799 801 802 803 803 804 807 809 810 810 812 812 811 812 812 812 811 809 808 806 805 803 801 799
743 738 745 751 758 757 763 762 763 766 770 775 779 782 786 787 795 798 801 802 803 804 806 808 809 810 811 812 812 812 812 812 811 811 810 810 808 806 804 802 800 799 797 795
734 740 759 767 754 755 771 770 769 772 778 782 785 791 794 795 799 801 805 808 809 810 811 811 812 813 814 814 814 813 811 810 809 807 806 805 803 801 799 797 793 793 791 789
Wind_Speed
6 3 0 4 3 4 1 6 11 5 8 7 11 6 10 10 7 9 9 9 9 13 15 27 32 35 39 38 37 35 34 29 28 24 19 16 16 14 15 13 15 12 11 11
6 7 7 9 7 5 7 14 7 8 4 6 9 8 10 11 8 12 12 11 11 8 9 14 24 28 35 39 35 38 37 33 28 22 16 13 15 14 16 14 13 11 9 10
4 7 10 6 6 12 14 5 14 6 3 2 5 4 5 8 6 7 11 14 16 16 12 8 12 26 31 35 36 36 33 27 25 20 17 16 15 16 17 15 15 12 12 10
5 4 8 8 9 11 8 4 5 9 2 3 3 2 2 5 10 8 10 13 15 14 14 13 15 21 27 28 36 35 30 23 23 24 24 25 23 23 22 18 18 17 14 10
7 2 5 4 11 3 7 6 5 5 4 4 2 4 7 3 3 4 7 9 12 15 16 15 16 23 30 31 33 30 25 22 23 22 27 25 25 23 23 20 21 17 13 8
5 4 6 5 8 4 8 3 4 6 3 2 6 5 4 9 17 6 11 6 9 9 17 15 20 25 28 30 29 26 26 23 23 22 26 24 21 23 26 25 20 16 10 9
4 8 4 3 6 10 4 4 3 5 5 5 9 3 13 13 8 13 18 14 7 9 13 14 15 19 26 26 27 25 25 24 23 21 21 19 26 23 22 22 19 18 14 10
6 7 2 3 10 3 4 5 4 5 2 4 10 4 4 13 7 10 10 5 5 9 9 15 17 20 23 24 23 26 26 29 26 21 18 17 18 20 19 18 15 11 7 4
3 1 3 9 6 2 1 3 5 6 4 4 5 4 5 8 5 6 5 5 8 8 8 9 12 22 25 24 25 26 30 30 26 22 19 18 17 16 15 11 7 7 5 5
4 3 3 12 10 9 4 3 4 3 4 4 3 3 4 4 6 9 10 9 8 8 8 8 12 21 24 21 19 18 20 26 24 22 22 21 18 15 9 9 7 4 5 5
6 4 5 5 6 10 1 2 3 3 4 4 0 4 1 6 8 9 9 12 12 10 9 9 12 25 28 25 21 19 14 23 25 25 23 19 16 10 11 7 6 6 7 7
8 5 4 18 17 9 5 5 2 4 4 2 5 5 2 5 7 8 8 11 11 13 12 11 16 24 28 31 29 28 21 20 27 25 21 19 15 13 6 7 7 8 13 9
3 2 3 3 3 4 3 4 4 3 3 4 5 5 4 5 2 6 7 8 9 10 10 11 13 19 24 28 33 31 23 25 25 23 22 18 14 9 8 4 13 13 11 8
4 1 6 6 6 2 5 5 5 5 4 3 5 5 12 7 7 6 7 5 8 10 14 13 13 17 26 26 26 31 28 23 26 26 22 15 11 9 2 4 3 12 6 5
4 4 1 5 5 3 4 5 6 4 6 7 8 7 13 3 6 6 4 2 2 5 4 7 11 7 20 25 25 27 26 25 29 24 16 15 9 8 1 10 12 6 10 11
1 2 3 2 6 7 3 5 8 6 5 1 4 6 4 4 6 7 7 7 7 8 8 8 8 9 15 22 27 27 28 28 27 24 20 14 5 2 3 4 12 8 9 12
6 4 3 2 4 6 6 6 6 6 4 3 4 4 8 10 9 6 6 8 6 6 7 7 5 10 19 26 28 24 27 30 24 19 13 9 13 3 10 7 6 7 14 18
6 5 3 3 3 1 9 1 5 6 6 8 9 7 7 6 9 12 9 9 9 9 9 8 8 4 10 20 24 29 29 24 22 20 14 9 10 9 7 11 14 16 18 17
4 5 2 4 4 5 6 2 2 4 4 6 8 8 7 7 6 8 9 7 7 7 7 12 20 24 25 26 27 28 28 24 21 20 19 16 13 14 15 14 15 19 22 23
7 5 5 2 4 6 6 3 4 3 2 4 8 8 8 8 5 3 5 7 12 25 26 27 27 30 30 27 33 35 28 27 26 20 15 13 11 9 10 17 17 21 15 16
3 3 5 2 2 7 5 5 0 6 5 4 7 6 7 4 4 4 5 12 26 25 26 29 33 30 26 28 32 28 26 25 18 13 8 3 6 12 13 17 13 15 18 20
6 6 3 4 3 5 6 3 6 6 3 7 6 5 6 6 9 9 14 16 21 23 26 26 28 26 24 25 27 22 20 13 8 1 6 7 9 11 13 16 17 18 19 21
2 6 6 7 6 6 4 9 6 9 7 5 7 8 8 8 10 16 15 16 20 22 23 23 23 21 20 20 17 14 5 4 1 4 8 12 13 12 15 16 17 18 19 22
2 4 3 5 3 5 12 10 9 11 13 14 12 8 12 15 14 14 13 13 17 19 19 19 18 15 11 9 10 9 5 3 6 10 13 13 14 15 18 19 17 18 20 15
5 4 5 3 10 14 10 7 11 12 16 16 16 14 13 16 13 12 11 12 14 13 13 13 14 13 11 8 6 5 5 8 13 13 14 15 18 18 19 19 20 19 19 17
1 4 4 4 4 10 6 10 13 16 14 12 15 14 14 15 11 12 9 11 13 14 14 14 10 7 6 6 9 11 11 13 13 13 19 20 20 20 22 23 24 19 18 23
Wind_Direction
333 359 93 294 356 124 44 285 266 266 237 137 179 182 209 221 166 159 163 149 158 156 166 163 164 158 157 162 168 171 172 170 173 172 167 175 174 163 156 147 141 138 144 140
26 4 281 21 336 308 300 267 277 307 133 125 203 208 185 199 195 172 164 161 163 134 137 142 160 149 159 166 165 173 176 176 180 180 184 183 173 169 165 150 143 152 143 160
105 274 276 250 269 238 220 282 217 234 296 332 145 296 174 214 179 172 174 167 166 156 158 155 160 150 159 167 166 171 178 177 186 184 190 176 170 160 165 155 156 168 163 171
170 282 322 330 298 254 275 198 304 299 306 213 94 269 97 228 198 197 178 176 173 172 161 163 169 150 162 167 175 179 180 176 194 190 184 172 175 175 174 180 173 170 177 176
221 172 316 315 272 186 243 240 234 278 284 102 137 99 273 193 305 240 224 192 176 177 164 168 171 168 167 165 175 177 184 191 190 201 182 176 181 186 193 181 172 179 186 187
170 150 176 242 264 275 273 298 329 26 44 27 240 137 262 212 217 158 250 267 182 174 168 164 164 149 156 168 174 181 187 197 195 202 183 184 182 148 149 155 168 181 182 176
212 190 246 217 309 293 331 17 1 5 12 246 315 142 231 226 221 193 215 228 190 134 137 143 144 152 163 177 190 200 197 194 196 172 175 179 170 169 162 164 154 144 143 133
185 77 337 337 226 251 265 134 154 172 209 251 323 240 234 222 181 212 212 152 159 137 146 156 166 166 167 182 193 192 199 178 176 177 166 163 156 152 150 152 158 160 166 157
130 49 297 300 347 273 150 332 170 108 6 60 244 331 9 88 56 149 149 198 156 141 144 142 139 154 163 173 186 176 169 170 172 172 170 166 163 159 150 155 169 167 195 191
186 109 354 292 347 284 167 272 31 359 144 238 314 22 168 128 133 168 167 164 158 154 150 147 143 151 158 160 161 173 175 174 174 173 176 169 164 165 164 154 159 211 167 252
138 101 301 44 248 238 187 248 238 148 138 162 70 285 166 150 156 164 187 174 170 167 167 167 160 164 169 173 183 189 190 180 175 174 167 163 165 165 167 190 183 197 240 232
201 135 144 224 244 208 176 193 193 123 263 185 142 272 212 138 173 169 172 191 177 174 172 170 168 168 172 177 184 188 190 184 174 166 162 159 160 170 165 197 194 252 231 224
153 193 140 333 294 299 225 213 221 147 85 179 127 260 234 173 158 176 183 160 176 177 175 176 173 173 173 175 179 180 177 170 169 174 174 167 169 163 183 213 281 218 216 222
109 128 148 188 214 154 330 261 255 151 112 200 208 272 298 250 200 217 178 146 174 181 186 188 185 183 183 178 168 175 177 172 173 169 160 162 173 170 331 248 335 241 217 249
109 164 299 295 309 252 231 299 315 246 203 150 233 226 264 126 114 61 125 125 150 136 207 216 189 149 157 165 171 176 183 173 167 153 154 148 142 113 328 295 252 268 284 281
178 199 119 308 335 14 1 302 306 301 303 228 228 242 218 184 78 70 73 76 90 61 39 70 118 146 161 159 171 181 176 160 159 149 141 143 157 39 144 343 322 265 291 304
141 129 87 245 351 7 345 245 238 247 280 259 287 330 65 51 53 43 41 55 64 73 67 50 98 163 176 176 178 160 159 153 143 135 130 115 123 87 354 333 275 319 313 295
144 115 98 181 39 42 243 243 130 108 64 72 72 60 77 86 57 35 40 81 59 49 33 23 33 50 109 153 149 142 138 127 119 106 101 86 55 52 48 9 351 318 292 298
100 116 96 135 186 288 324 26 129 123 35 52 70 41 36 23 76 24 24 49 61 43 40 42 68 90 95 98 111 113 113 110 101 92 81 77 60 30 8 339 287 294 296 277
56 83 116 130 146 199 237 155 32 70 59 47 70 50 40 45 59 289 20 37 55 67 62 68 67 70 76 81 98 87 77 75 72 71 59 44 19 343 284 281 284 281 275 285
43 12 143 132 184 286 231 146 197 95 219 81 78 76 57 70 173 212 97 65 74 74 74 75 70 69 71 77 85 82 85 83 76 64 52 329 274 270 274 282 290 300 298 301
159 141 187 101 91 282 179 100 130 190 99 81 62 59 67 54 35 51 71 74 80 80 75 75 78 75 77 79 83 76 73 71 76 193 228 254 273 288 298 298 295 294 295 292
129 173 174 163 208 225 114 110 90 94 98 57 67 49 73 60 53 82 83 80 77 79 82 82 85 82 77 87 91 99 135 147 115 318 316 305 299 294 290 294 298 300 297 295
83 143 111 85 351 88 81 73 75 75 78 73 58 52 73 85 87 87 82 80 79 80 84 95 100 106 101 76 66 63 33 342 292 298 304 306 300 298 295 297 297 297 299 294
198 117 147 138 116 84 51 55 90 73 89 80 67 67 78 91 82 89 88 89 102 105 90 73 66 62 57 44 26 357 334 309 303 303 298 296 298 297 294 291 292 293 294 303
150 171 138 200 79 108 84 77 84 80 83 85 88 77 72 90 102 102 92 79 68 69 72 66 60 45 19 9 335 326 324 309 288 281 289 292 291 289 286 289 291 285 277 294